User: anonymous   Login
Location: Aiyekoto
(8.4333°N, 4.3667°E)
Time: 02:48:39
(UTC+00:00)
Language:

Spot 2 - Orbit

View from above orbital plane
View from above orbital plane
View from above satellite
View from above satellite

Ground track
Ground track

The orbit data is extracted from the following two-line orbital elements,

1 20436U 90005A   20221.58344688 +.00000063 +00000-0 +20301-4 0  9991
2 20436 098.7382 210.5357 0143721 285.0273 073.5062 14.66565403601316
Epoch (UTC): 08 August 2020 14:00:09
Eccentricity: 0.0143721
inclination: 98.7382°
perigee height: 571 km
apogee height: 773 km
right ascension of ascending node: 210.5357°
argument of perigee: 285.0273°
revolutions per day: 14.66565403
mean anomaly at epoch: 73.5062°
orbit number at epoch: 60131

The dashed part of the orbit path shows where the satellite is in the earth's shadow,  

DLR